Time,TemperatureF,DewpointF,PressureIn,WindDirection,WindDirectionDegrees,WindSpeedMPH,WindSpeedGustMPH,Humidity,HourlyPrecipIn,Conditions,Clouds,dailyrainin,SoftwareType,DateUTC
2013-06-05 00:04:00,57.3,49.0,30.01,South,183,0.0,-999.0,75,-99.99,,,0.00,weatherlink.com 1.10,2013-06-05 07:04:00,
2013-06-05 00:19:00,57.1,49.0,30.01,South,183,0.0,-999.0,75,-99.99,,,0.00,weatherlink.com 1.10,2013-06-05 07:19:00,
2013-06-05 00:34:00,56.6,49.0,30.01,South,183,0.0,-999.0,76,-99.99,,,0.00,weatherlink.com 1.10,2013-06-05 07:34:00,
2013-06-05 00:49:00,56.4,49.0,30.01,South,183,0.0,-999.0,76,-99.99,,,0.00,weatherlink.com 1.10,2013-06-05 07:49:00,
2013-06-05 01:04:00,55.5,49.0,30.01,South,183,0.0,-999.0,79,-99.99,,,0.00,weatherlink.com 1.10,2013-06-05 08:04:00,
2013-06-05 01:19:00,55.1,49.0,30.02,South,183,0.0,-999.0,79,-99.99,,,0.00,weatherlink.com 1.10,2013-06-05 08:19:00,
2013-06-05 01:35:00,54.8,49.0,30.02,South,183,0.0,-999.0,80,-99.99,,,0.00,weatherlink.com 1.10,2013-06-05 08:35:00,
2013-06-05 01:50:00,54.4,48.0,30.02,South,183,0.0,-999.0,80,-99.99,,,0.00,weatherlink.com 1.10,2013-06-05 08:50:00,
2013-06-05 02:05:00,54.1,48.0,30.02,South,183,0.0,-999.0,80,-99.99,,,0.00,weatherlink.com 1.10,2013-06-05 09:05:00,
2013-06-05 02:20:00,53.6,48.0,30.02,South,183,0.0,-999.0,82,-99.99,,,0.00,weatherlink.com 1.10,2013-06-05 09:20:00,
2013-06-05 02:35:00,53.1,48.0,30.02,South,183,0.0,-999.0,82,-99.99,,,0.00,weatherlink.com 1.10,2013-06-05 09:35:00,
2013-06-05 02:50:00,52.8,47.0,30.03,South,183,0.0,-999.0,82,-99.99,,,0.00,weatherlink.com 1.10,2013-06-05 09:50:00,
2013-06-05 03:05:00,52.5,48.0,30.03,South,183,0.0,-999.0,83,-99.99,,,0.00,weatherlink.com 1.10,2013-06-05 10:05:00,
2013-06-05 03:20:00,52.1,47.0,30.03,South,183,0.0,-999.0,83,-99.99,,,0.00,weatherlink.com 1.10,2013-06-05 10:20:00,
2013-06-05 03:35:00,51.8,48.0,30.03,South,183,1.0,-999.0,85,-99.99,,,0.00,weatherlink.com 1.10,2013-06-05 10:35:00,
2013-06-05 03:50:00,51.3,47.0,30.03,South,183,0.0,-999.0,85,-99.99,,,0.00,weatherlink.com 1.10,2013-06-05 10:50:00,
2013-06-05 04:05:00,51.0,47.0,30.04,South,183,0.0,-999.0,86,-99.99,,,0.00,weatherlink.com 1.10,2013-06-05 11:05:00,
2013-06-05 04:20:00,50.7,47.0,30.04,South,183,0.0,-999.0,86,-99.99,,,0.00,weatherlink.com 1.10,2013-06-05 11:20:00,
2013-06-05 04:35:00,50.3,47.0,30.04,South,183,0.0,-999.0,87,-99.99,,,0.00,weatherlink.com 1.10,2013-06-05 11:35:00,
2013-06-05 04:50:00,50.0,47.0,30.04,South,183,0.0,-999.0,88,-99.99,,,0.00,weatherlink.com 1.10,2013-06-05 11:50:00,
2013-06-05 05:05:00,49.7,46.0,30.05,South,183,0.0,-999.0,88,-99.99,,,0.00,weatherlink.com 1.10,2013-06-05 12:05:00,
2013-06-05 05:20:00,49.6,46.0,30.05,South,183,0.0,-999.0,88,-99.99,,,0.00,weatherlink.com 1.10,2013-06-05 12:20:00,
2013-06-05 05:35:00,49.4,46.0,30.05,South,183,0.0,-999.0,89,-99.99,,,0.00,weatherlink.com 1.10,2013-06-05 12:35:00,
2013-06-05 05:50:00,49.5,46.0,30.05,South,183,0.0,-999.0,89,-99.99,,,0.00,weatherlink.com 1.10,2013-06-05 12:50:00,
2013-06-05 06:05:00,50.5,47.0,30.05,South,183,0.0,-999.0,88,-99.99,,,0.00,weatherlink.com 1.10,2013-06-05 13:05:00,
2013-06-05 06:20:00,50.6,47.0,30.05,South,183,0.0,-999.0,86,-99.99,,,0.00,weatherlink.com 1.10,2013-06-05 13:20:00,
2013-06-05 06:35:00,51.1,47.0,30.05,South,183,0.0,-999.0,85,-99.99,,,0.00,weatherlink.com 1.10,2013-06-05 13:35:00,
2013-06-05 06:50:00,53.2,48.0,30.05,South,183,0.0,-999.0,83,-99.99,,,0.00,weatherlink.com 1.10,2013-06-05 13:50:00,
2013-06-05 07:05:00,53.6,48.0,30.05,South,183,0.0,-999.0,80,-99.99,,,0.00,weatherlink.com 1.10,2013-06-05 14:05:00,
2013-06-05 07:20:00,54.7,48.0,30.05,South,183,0.0,-999.0,78,-99.99,,,0.00,weatherlink.com 1.10,2013-06-05 14:20:00,
2013-06-05 07:35:00,56.6,49.0,30.05,South,183,0.0,-999.0,75,-99.99,,,0.00,weatherlink.com 1.10,2013-06-05 14:35:00,
2013-06-05 07:50:00,58.9,49.0,30.04,South,183,0.0,-999.0,70,-99.99,,,0.00,weatherlink.com 1.10,2013-06-05 14:50:00,
2013-06-05 08:20:00,61.4,49.0,30.04,South,183,0.0,-999.0,65,-99.99,,,0.00,weatherlink.com 1.10,2013-06-05 15:20:00,
2013-06-05 08:35:00,64.1,49.0,30.04,South,183,0.0,-999.0,59,-99.99,,,0.00,weatherlink.com 1.10,2013-06-05 15:35:00,
2013-06-05 08:50:00,65.8,49.0,30.03,South,183,0.0,-999.0,55,-99.99,,,0.00,weatherlink.com 1.10,2013-06-05 15:50:00,
2013-06-05 09:05:00,68.0,49.0,30.03,East,85,2.0,-999.0,51,-99.99,,,0.00,weatherlink.com 1.10,2013-06-05 16:05:00,
2013-06-05 09:20:00,68.9,50.0,30.02,East,87,2.0,-999.0,51,-99.99,,,0.00,weatherlink.com 1.10,2013-06-05 16:20:00,
2013-06-05 09:35:00,69.5,49.0,30.02,SSW,212,3.0,-999.0,48,-99.99,,,0.00,weatherlink.com 1.10,2013-06-05 16:35:00,
2013-06-05 09:50:00,70.9,51.0,30.02,SSW,195,1.0,-999.0,49,-99.99,,,0.00,weatherlink.com 1.10,2013-06-05 16:50:00,
2013-06-05 10:05:00,71.7,49.0,30.01,SSW,196,0.0,-999.0,45,-99.99,,,0.00,weatherlink.com 1.10,2013-06-05 17:05:00,
2013-06-05 10:20:00,73.0,50.0,30.00,SSW,194,0.0,-999.0,45,-99.99,,,0.00,weatherlink.com 1.10,2013-06-05 17:20:00,
2013-06-05 10:35:00,74.5,49.0,29.99,SSW,194,1.0,-999.0,41,-99.99,,,0.00,weatherlink.com 1.10,2013-06-05 17:35:00,
2013-06-05 10:50:00,75.5,51.0,29.99,SSW,194,1.0,-999.0,42,-99.99,,,0.00,weatherlink.com 1.10,2013-06-05 17:50:00,
2013-06-05 11:05:00,76.0,49.0,29.99,SW,232,0.0,-999.0,39,-99.99,,,0.00,weatherlink.com 1.10,2013-06-05 18:05:00,
2013-06-05 11:20:00,76.9,51.0,29.98,SSW,209,2.0,-999.0,40,-99.99,,,0.00,weatherlink.com 1.10,2013-06-05 18:20:00,
2013-06-05 11:35:00,79.3,49.0,29.98,SW,235,0.0,-999.0,35,-99.99,,,0.00,weatherlink.com 1.10,2013-06-05 18:35:00,
2013-06-05 11:51:00,79.2,51.0,29.97,SSW,207,1.0,-999.0,38,-99.99,,,0.00,weatherlink.com 1.10,2013-06-05 18:51:00,
2013-06-05 12:05:00,80.0,51.0,29.96,West,274,4.0,-999.0,36,-99.99,,,0.00,weatherlink.com 1.10,2013-06-05 19:05:00,
2013-06-05 12:21:00,81.4,46.0,29.96,West,271,3.0,-999.0,29,-99.99,,,0.00,weatherlink.com 1.10,2013-06-05 19:21:00,
2013-06-05 12:36:00,82.1,48.0,29.96,WSW,248,2.0,-999.0,30,-99.99,,,0.00,weatherlink.com 1.10,2013-06-05 19:36:00,
2013-06-05 12:51:00,82.7,47.0,29.95,South,175,4.0,-999.0,29,-99.99,,,0.00,weatherlink.com 1.10,2013-06-05 19:51:00,
2013-06-05 13:06:00,83.3,47.0,29.94,NW,306,5.0,-999.0,28,-99.99,,,0.00,weatherlink.com 1.10,2013-06-05 20:06:00,
2013-06-05 13:21:00,83.5,44.0,29.94,South,186,6.0,-999.0,25,-99.99,,,0.00,weatherlink.com 1.10,2013-06-05 20:21:00,
2013-06-05 13:36:00,84.5,42.0,29.94,SW,216,8.0,-999.0,22,-99.99,,,0.00,weatherlink.com 1.10,2013-06-05 20:36:00,
2013-06-05 13:51:00,84.9,42.0,29.94,SSW,203,4.0,-999.0,22,-99.99,,,0.00,weatherlink.com 1.10,2013-06-05 20:51:00,
2013-06-05 14:06:00,85.2,41.0,29.93,West,276,3.0,-999.0,21,-99.99,,,0.00,weatherlink.com 1.10,2013-06-05 21:06:00,
2013-06-05 14:36:00,85.2,39.0,29.92,West,265,2.0,-999.0,19,-99.99,,,0.00,weatherlink.com 1.10,2013-06-05 21:36:00,
2013-06-05 15:06:00,86.4,42.0,29.91,West,262,0.0,-999.0,21,-99.99,,,0.00,weatherlink.com 1.10,2013-06-05 22:06:00,
2013-06-05 15:21:00,86.1,45.0,29.91,WSW,242,0.0,-999.0,24,-99.99,,,0.00,weatherlink.com 1.10,2013-06-05 22:21:00,
2013-06-05 15:36:00,86.6,41.0,29.90,South,187,2.0,-999.0,20,-99.99,,,0.00,weatherlink.com 1.10,2013-06-05 22:36:00,
2013-06-05 15:51:00,87.0,41.0,29.90,South,171,4.0,-999.0,20,-99.99,,,0.00,weatherlink.com 1.10,2013-06-05 22:51:00,
2013-06-05 16:06:00,86.9,41.0,29.89,SSE,160,2.0,-999.0,20,-99.99,,,0.00,weatherlink.com 1.10,2013-06-05 23:06:00,
2013-06-05 16:21:00,87.1,41.0,29.89,West,280,1.0,-999.0,20,-99.99,,,0.00,weatherlink.com 1.10,2013-06-05 23:21:00,
2013-06-05 16:36:00,87.3,43.0,29.89,SSE,149,2.0,-999.0,21,-99.99,,,0.00,weatherlink.com 1.10,2013-06-05 23:36:00,
2013-06-05 16:51:00,87.1,43.0,29.88,SSW,196,1.0,-999.0,21,-99.99,,,0.00,weatherlink.com 1.10,2013-06-05 23:51:00,
2013-06-05 17:06:00,86.9,44.0,29.88,South,176,4.0,-999.0,22,-99.99,,,0.00,weatherlink.com 1.10,2013-06-06 00:06:00,
2013-06-05 17:21:00,86.8,42.0,29.88,South,187,0.0,-999.0,21,-99.99,,,0.00,weatherlink.com 1.10,2013-06-06 00:21:00,
2013-06-05 17:36:00,86.9,47.0,29.87,SSW,194,3.0,-999.0,25,-99.99,,,0.00,weatherlink.com 1.10,2013-06-06 00:36:00,
2013-06-05 17:51:00,86.6,45.0,29.87,South,190,1.0,-999.0,23,-99.99,,,0.00,weatherlink.com 1.10,2013-06-06 00:51:00,
2013-06-05 18:06:00,85.6,48.0,29.87,South,190,2.0,-999.0,27,-99.99,,,0.00,weatherlink.com 1.10,2013-06-06 01:06:00,
2013-06-05 18:21:00,84.1,49.0,29.87,SSW,203,2.0,-999.0,30,-99.99,,,0.00,weatherlink.com 1.10,2013-06-06 01:21:00,
2013-06-05 18:36:00,82.1,51.0,29.87,SSW,203,0.0,-999.0,34,-99.99,,,0.00,weatherlink.com 1.10,2013-06-06 01:36:00,
2013-06-05 18:51:00,81.1,52.0,29.86,SSW,203,0.0,-999.0,37,-99.99,,,0.00,weatherlink.com 1.10,2013-06-06 01:51:00,
2013-06-05 19:06:00,80.0,53.0,29.86,SSW,203,0.0,-999.0,39,-99.99,,,0.00,weatherlink.com 1.10,2013-06-06 02:06:00,
2013-06-05 19:21:00,78.7,52.0,29.86,SSW,203,0.0,-999.0,40,-99.99,,,0.00,weatherlink.com 1.10,2013-06-06 02:21:00,
2013-06-05 19:36:00,77.7,53.0,29.87,SSW,203,0.0,-999.0,42,-99.99,,,0.00,weatherlink.com 1.10,2013-06-06 02:36:00,
2013-06-05 19:51:00,75.8,52.0,29.87,SSW,203,0.0,-999.0,44,-99.99,,,0.00,weatherlink.com 1.10,2013-06-06 02:51:00,
2013-06-05 20:07:00,74.3,53.0,29.87,SSW,203,0.0,-999.0,47,-99.99,,,0.00,weatherlink.com 1.10,2013-06-06 03:07:00,
2013-06-05 20:22:00,72.5,53.0,29.87,SSW,203,0.0,-999.0,51,-99.99,,,0.00,weatherlink.com 1.10,2013-06-06 03:22:00,
2013-06-05 20:37:00,70.8,53.0,29.87,SSW,203,0.0,-999.0,54,-99.99,,,0.00,weatherlink.com 1.10,2013-06-06 03:37:00,
2013-06-05 20:52:00,69.7,54.0,29.88,SSW,203,0.0,-999.0,57,-99.99,,,0.00,weatherlink.com 1.10,2013-06-06 03:52:00,
2013-06-05 21:07:00,68.7,53.0,29.88,SSW,203,0.0,-999.0,58,-99.99,,,0.00,weatherlink.com 1.10,2013-06-06 04:07:00,
2013-06-05 21:22:00,67.3,53.0,29.89,SSW,203,0.0,-999.0,61,-99.99,,,0.00,weatherlink.com 1.10,2013-06-06 04:22:00,
2013-06-05 21:37:00,66.7,53.0,29.89,SSW,203,0.0,-999.0,62,-99.99,,,0.00,weatherlink.com 1.10,2013-06-06 04:37:00,
2013-06-05 21:52:00,65.5,53.0,29.89,SSW,203,0.0,-999.0,64,-99.99,,,0.00,weatherlink.com 1.10,2013-06-06 04:52:00,
2013-06-05 22:07:00,65.4,53.0,29.90,SSW,203,0.0,-999.0,64,-99.99,,,0.00,weatherlink.com 1.10,2013-06-06 05:07:00,
2013-06-05 22:22:00,64.5,53.0,29.90,SSW,203,0.0,-999.0,66,-99.99,,,0.00,weatherlink.com 1.10,2013-06-06 05:22:00,
2013-06-05 22:37:00,63.7,52.0,29.91,SSW,203,0.0,-999.0,67,-99.99,,,0.00,weatherlink.com 1.10,2013-06-06 05:37:00,
2013-06-05 22:52:00,63.4,52.0,29.91,SSW,203,0.0,-999.0,67,-99.99,,,0.00,weatherlink.com 1.10,2013-06-06 05:52:00,
2013-06-05 23:07:00,62.8,52.0,29.91,SSW,203,0.0,-999.0,69,-99.99,,,0.00,weatherlink.com 1.10,2013-06-06 06:07:00,
2013-06-05 23:22:00,62.0,52.0,29.91,SSW,203,0.0,-999.0,71,-99.99,,,0.00,weatherlink.com 1.10,2013-06-06 06:22:00,
2013-06-05 23:37:00,61.2,52.0,29.91,SSW,203,0.0,-999.0,72,-99.99,,,0.00,weatherlink.com 1.10,2013-06-06 06:37:00,
2013-06-05 23:52:00,60.7,52.0,29.92,SSW,203,0.0,-999.0,73,-99.99,,,0.00,weatherlink.com 1.10,2013-06-06 06:52:00,